Greenville, ME

4:42 PM EST on December 16, 2017 (GMT -0500)
Greenville

Weather History for KGNR - July, 2014

Change the Weather History Date:

Monday, July 28, 2014

  Actual Average (KMLT) Record (KMLT)
Temperature  
Mean Temperature 64 °F -  
Max Temperature 66 °F 76 °F 97 °F (1959)
Min Temperature 62 °F 57 °F 40 °F (1920)
Degree Days  
Heating Degree Days 1    
Growing Degree Days 14 (Base 50)    
Moisture  
Dew Point 63 °F    
Average Humidity 96    
Maximum Humidity 100    
Minimum Humidity 93    
Precipitation  
Precipitation 0.91 in - - ()
Sea Level Pressure  
Sea Level Pressure 29.61 in    
Wind  
Wind Speed 4 mph (ESE)    
Max Wind Speed 10 mph    
Max Gust Speed 21 mph    
Averages and records for this station are not official NWS values.
T = Trace of Precipitation, MM = Missing Value Source: NWS Daily Summary

Daily Weather History Graph

Daily Weather History Graph

Search for Another Location

Airport or City:

Trip Planner

Search our weather history database for the weather conditions in past years. The results will help you decide how hot, cold, wet, or windy it might be!

Date:

Astronomy

Jul. 28, 2014 Rise Set
Actual Time 5:17 AM EDT 8:11 PM EDT
Civil Twilight 4:43 AM EDT 8:45 PM EDT
Nautical Twilight 3:58 AM EDT 9:29 PM EDT
Astronomical Twilight 3:06 AM EDT 10:21 PM EDT
Moon 7:03 AM EDT (7/28) 8:42 PM EDT (7/28)
Length of Visible Light 16h 02m
Length of Day
14h 53m
Waxing Crescent, 3% of the Moon is Illuminated
Jul 28
Waxing Crescent
Aug 3
First Quarter
Aug 10
Full
Aug 17
Last Quarter
Aug 25
New

Hourly Weather History & Observations

Time (EDT) Temp. Dew Point Humidity Pressure Visibility Wind Dir Wind Speed Gust Speed Precip Events Conditions
12:56 AM 62.1 °F 61.0 °F 96% 29.69 in - South 3.5 mph - N/A   Unknown
1:56 AM 62.1 °F 61.0 °F 96% 29.67 in - Calm Calm - N/A   Unknown
2:56 AM 62.1 °F 61.0 °F 96% 29.67 in - Calm Calm - N/A   Unknown
3:56 AM 62.1 °F 61.0 °F 96% 29.67 in - Calm Calm - N/A   Unknown
4:56 AM 62.1 °F 61.0 °F 96% 29.67 in - Calm Calm - N/A   Unknown
5:56 AM 62.1 °F 61.0 °F 96% 29.68 in - Calm Calm - N/A   Unknown
6:56 AM 62.1 °F 61.0 °F 96% 29.69 in - Variable 3.5 mph - N/A   Unknown
7:56 AM 62.1 °F 61.0 °F 96% 29.70 in - Calm Calm - N/A   Unknown
8:56 AM 63.0 °F 62.1 °F 97% 29.70 in - ESE 5.8 mph - N/A   Unknown
9:56 AM 64.0 °F 62.1 °F 93% 29.69 in - East 6.9 mph - N/A   Unknown
10:56 AM 64.9 °F 63.0 °F 93% 29.67 in - ESE 5.8 mph - N/A   Unknown
11:56 AM 66.0 °F 64.0 °F 93% 29.66 in - ESE 8.1 mph - N/A   Unknown
12:56 PM 66.0 °F 64.0 °F 93% 29.66 in - Variable 6.9 mph - 0.01 in   Unknown
1:56 PM 66.0 °F 64.9 °F 96% 29.62 in - East 10.4 mph - 0.01 in   Unknown
2:56 PM 66.0 °F 64.9 °F 96% 29.58 in - East 8.1 mph - 0.27 in   Unknown
3:56 PM 64.9 °F 63.0 °F 93% 29.55 in - SE 10.4 mph 20.7 mph 0.23 in   Unknown
4:56 PM 64.0 °F 63.0 °F 96% 29.52 in - SE 10.4 mph 19.6 mph 0.13 in   Unknown
5:56 PM 64.0 °F 63.0 °F 96% 29.52 in - Variable 5.8 mph - 0.04 in   Unknown
6:56 PM 64.0 °F 64.0 °F 100% 29.53 in - Variable 5.8 mph - 0.01 in   Unknown
7:56 PM 64.0 °F 64.0 °F 100% 29.52 in - Variable 4.6 mph - N/A   Unknown
8:56 PM 64.0 °F 64.0 °F 100% 29.51 in - Variable 4.6 mph - 0.01 in   Unknown
9:56 PM 64.0 °F 64.0 °F 100% 29.48 in - Variable 6.9 mph - 0.02 in   Unknown
10:56 PM 64.0 °F 63.0 °F 96% 29.46 in - ESE 5.8 mph - 0.18 in   Unknown
11:56 PM 64.0 °F 63.0 °F 96% 29.44 in - ESE 10.4 mph - N/A   Unknown